Back to catalog

COSMOS 1275 DEB

AlivePO
NORAD 13460·DEBRIS·🇷🇺 Russia

Launched Jun 4, 1981 from Plesetsk Cosmodrome

Loading…

Next Passes (next 24 hours)

TLE

FreshSource: Space-Track

Epoch: Sep 14, 2026, 22:26 UTC

1 13460U 81053FG  26257.93491071  .00000525  00000-0  47908-3 0  9990
2 13460  83.1269 243.9431 0087500 107.7225 281.9669 13.79619841235162

Track COSMOS 1275 DEB in real time with AllMySat

Download on the App Store